Regional Weather Roundup
Issued by NWS Jackson, KY

Home | Current Version | Previous Version | Text Only | Print | Product List | Glossary On
Versions: 1 2 3 4 5 6 7 8 9 10 11 12 13 14 15 16 17 18 19 20 21 22 23 24 25 26 27
000
ASUS43 KJKL 242010
RWRJKL

EAST KENTUCKY HOURLY WEATHER ROUNDUP
NATIONAL WEATHER SERVICE JACKSON KY
400 PM EDT SAT SEP 24 2016

NOTE: "FAIR" INDICATES FEW OR NO CLOUDS BELOW 12,000 FEET WITH
NO SIGNIFICANT WEATHER AND/OR OBSTRUCTIONS TO VISIBILITY.

* THESE REPORTS ARE NOT UNDER NWS QUALITY CONTROL AND MAY NOT
  REPORT WEATHER SUCH AS PRECIPITATION AND FOG.

KYZ079-080-083-085-087-088-110-112-115-119-120-242100
...EASTERN KENTUCKY...

CITY           SKY/WX    TMP DP  RH WIND       PRES   REMARKS
JACKSON        PTSUNNY   85  61  44 NW6       30.12F
LONDON         MOSUNNY   88  61  40 CALM      30.11F
SOMERSET*      MOSUNNY   86  61  42 W3        30.10F
MONTICELLO*    SUNNY     86  62  44 N17       30.11F
WILLIAMSBURG*  CLEAR     86  63  45 N6        30.10F
MIDDLESBORO*   SUNNY     88  63  44 NE5       30.10F
HARLAN APT*    MOCLDY    86  57  37 NW3       30.12F
PIKE CO APT*   PTSUNNY   84  63  49 N5        30.12S
BIG SANDY APT* CLEAR     88  64  44 N3        30.11S
MOREHEAD APT*  CLEAR     90  61  37 VRB6      30.12F
ASHLAND*       SUNNY     88  70  55 NE3       30.07F HX  92
$$

KYZ035-036-041-042-044-050-067-078-099-242100
...CENTRAL KENTUCKY...

CITY           SKY/WX    TMP DP  RH WIND       PRES   REMARKS
MT STERLING*   MOSUNNY   88  63  42 NE7       30.11F
FLEMING/MASON* MOSUNNY   85  66  53 N5        30.11F
DANVILLE*      SUNNY     86  63  45 CALM      30.11F
LEXINGTON      SUNNY     89  60  37 W5        30.10F
FRANKFORT      SUNNY     90  61  37 CALM      30.08F HX  90
LOUISVILLE     MOSUNNY   91  60  35 NE7       30.07F HX  90
LEBANON*         N/A     88  63  42 CALM      30.10F
GLASGOW*       SUNNY     88  62  40 CALM      30.09F
BOWLING GREEN  SUNNY     91  62  37 N6        30.08F HX  91
$$

KYZ091>093-OHZ055-061-077-WVZ005-015-034-035-042-242100
...SOUTHERN OHIO/WEST VIRGINIA...

CITY           SKY/WX    TMP DP  RH WIND       PRES   REMARKS
COVINGTON      MOSUNNY   82  67  60 NE5       30.12F
COLUMBUS       PTSUNNY   77  64  64 NE8       30.13F
DAYTON         PTSUNNY   76  64  66 NE6       30.16F
WILMINGTON     PTSUNNY   81  66  60 N10       30.13F
HUNTINGTON     MOSUNNY   87  64  46 N8        30.08F
CHARLESTON     MOSUNNY   90  62  39 N8        30.08F HX  90
PINEVILLE*     MOSUNNY   87  56  34 MISG      30.17F
BECKLEY        PTSUNNY   78  60  53 N9        30.16F
BLUEFIELD      CLOUDY    78  58  49 VRB7      30.19S
LOGAN CO APT*  MOCLDY    84  63  48 CALM      30.11F
$$

VAZ002-007-008-TNZ017-027-036-066-071-242100
...SOUTHWEST VIRGINIA/EAST TENNESSEE...

CITY           SKY/WX    TMP DP  RH WIND       PRES   REMARKS
WISE*          SUNNY     82  50  32 CALM      30.19F
JONESVILLE*      N/A     86  63  45 CALM      30.12F
ABINGDON*      PTSUNNY   86  60  40 NW5       30.14F
BRISTOL        MOSUNNY   88  61  40 VRB3      30.10F
MORRISTOWN*    CLEAR     90  59  35 N6        30.08F
SEVIERVILLE*   CLEAR     91  55  29 SW3       30.06F
KNOXVILLE      MOSUNNY   92  58  31 VRB6      30.06F HX  91
OAK RIDGE      SUNNY     90  59  35 CALM      30.09F
CROSSVILLE     MOSUNNY   86  61  42 W9        30.13F
NASHVILLE      MOSUNNY   91  59  33 NE5       30.08F HX  90
$$

...KEY TO REMARKS...
VSB - VISIBILITY IN MILES
WCI - WIND CHILL INDEX
HX  - HEAT INDEX

$$




USA.gov is the U.S. government's official web portal to all federal, state and local government web resources and services.